Starlink 2754

operational
NORAD ID: 48641 Int'l Des: 2021-044 Owner: SPXS Country: US Constellation: starlink
LEOCIRCULARSTARLINK_TYPE

Über Starlink 2754

Beschreibung wird geladen...

Live-Position

3D-Globus wird geladen...

Nächste Überflüge

Höhenverlauf

Altitude vs Time

uPlot chart will show altitude changes over time

Zweizeiliger Elementsatz

1 48641U 21044D 26035.80846998 -.00007845 00000-0 -25315-3 0 9997
2 48641 53.1590 266.6123 0000789 166.8459 193.2563 15.30184441258798
Epoch: 4. Feb. 2026 • Age: 6 hours

Aktueller Status

Höhe 493.0 km
Geschwindigkeit 7.62 km/s
Subsatellitenpunkt -51.16°S, 0.31°W
Startdatum 26. Mai 2021
Alter 4.6 years
Typ internet

Technische Details

Klassifizierung Payload
Masse 260.00 kg
Trockenmasse 248.00 kg
Gesamtmasse 260.00 kg
Länge 0.20 m
Durchmesser 2.80 m
Spannweite 9.00 m
Form Box + pan
Hersteller SPXS
Bus-Typ Starlink
Phasenstatus In Orbit
Besitzer/Staat SPXS/US

Große Konstellationen

Loading constellations...